Change the Weather History Date:

Tuesday, February 11, 2014

  Actual Average Record
Temperature  
Mean Temperature -3 °F 23 °F  
Max Temperature 14 °F 32 °F 58 °F (1999)
Min Temperature -21 °F 14 °F -24 °F (1899)
Degree Days  
Heating Degree Days 68 42  
Month to date heating degree days 666 473  
Since 1 July heating degree days 5092 4628  
Cooling Degree Days 0 0  
Month to date cooling degree days 0 0  
Year to date cooling degree days 0 0  
Moisture  
Dew Point -7 °F    
Average Humidity 72    
Maximum Humidity 86    
Minimum Humidity 58    
Precipitation  
Precipitation 0.00 in 0.04 in 0.44 in (1953)
Month to date precipitation 0.12 0.36  
Sea Level Pressure  
Sea Level Pressure 30.39 in    
Wind  
Wind Speed 7 mph (SSE)    
Max Wind Speed 17 mph    
Max Gust Speed 23 mph    
Visibility 10 miles    
Events      
T = Trace of Precipitation, MM = Missing Value Source: NWS Daily Summary

Daily Weather History Graph

Daily Weather History Graph

Search for Another Location

Airport or City:

Trip Planner

Search our weather history database for the weather conditions in past years. The results will help you decide how hot, cold, wet, or windy it might be!

Date:

Astronomy

Feb. 11, 2014 Rise Set
Actual Time 7:15 AM CST 5:42 PM CST
Civil Twilight 6:46 AM CST 6:11 PM CST
Nautical Twilight 6:13 AM CST 6:44 PM CST
Astronomical Twilight 5:41 AM CST 7:16 PM CST
Moon 3:02 PM CST (2/11) 4:54 AM CST (2/11)
Length of Visible Light 11h 24m
Length of Day
10h 26m
Waxing Gibbous, 91% of the Moon is Illuminated
Feb 11
Waxing Gibbous
Feb 14
Full
Feb 22
Last Quarter
Mar 1
New
Mar 8
First Quarter

Hourly Weather History & Observations

Time (CST) Temp. Windchill Dew Point Humidity Pressure Visibility Wind Dir Wind Speed Gust Speed Precip Events Conditions
12:53 AM -13.0 °F - -18.0 °F 78% 30.56 in 10.0 mi Calm Calm - N/A   Overcast
1:53 AM -11.9 °F - -17.0 °F 78% 30.56 in 10.0 mi Calm Calm - N/A   Scattered Clouds
2:53 AM -16.1 °F - -20.0 °F 82% 30.56 in 10.0 mi Calm Calm - N/A   Clear
3:53 AM -18.0 °F - -23.1 °F 78% 30.54 in 10.0 mi Calm Calm - N/A   Clear
4:53 AM -18.9 °F - -24.0 °F 78% 30.56 in 10.0 mi Calm Calm - N/A   Clear
5:53 AM -18.9 °F - -24.0 °F 78% 30.56 in 10.0 mi Calm Calm - N/A   Clear
6:53 AM -20.9 °F - -26.0 °F 77% 30.56 in 10.0 mi Calm Calm - N/A   Clear
7:53 AM -18.0 °F - -22.0 °F 82% 30.56 in 10.0 mi Calm Calm - N/A   Clear
8:53 AM -11.0 °F - -14.1 °F 86% 30.56 in 10.0 mi Calm Calm - N/A   Clear
9:53 AM -5.1 °F -15.8 °F -9.9 °F 80% 30.54 in 10.0 mi SE 4.6 mph - N/A   Clear
10:53 AM 1.0 °F -11.7 °F -6.0 °F 72% 30.52 in 10.0 mi SSE 6.9 mph - N/A   Clear
11:53 AM 3.9 °F -11.3 °F -5.1 °F 66% 30.51 in 10.0 mi South 10.4 mph - N/A   Clear
12:53 PM 7.0 °F -8.3 °F -2.9 °F 64% 30.46 in 10.0 mi South 11.5 mph - N/A   Clear
1:53 PM 10.0 °F -3.7 °F -0.9 °F 61% 30.41 in 10.0 mi South 10.4 mph - N/A   Clear
2:53 PM 12.0 °F -0.4 °F -0.0 °F 59% 30.36 in 10.0 mi South 9.2 mph - N/A   Clear
3:53 PM 12.9 °F -1.6 °F -0.0 °F 56% 30.33 in 10.0 mi SSE 12.7 mph - N/A   Clear
4:53 PM 12.9 °F -0.9 °F -0.0 °F 56% 30.32 in 10.0 mi SSE 11.5 mph - N/A   Clear
5:53 PM 12.9 °F -0.2 °F 1.9 °F 62% 30.30 in 10.0 mi SSE 10.4 mph - N/A   Overcast
6:53 PM 12.9 °F -1.6 °F 1.9 °F 62% 30.28 in 10.0 mi SSE 12.7 mph - N/A   Overcast
7:53 PM 12.9 °F -2.8 °F 3.0 °F 65% 30.26 in 10.0 mi SSE 15.0 mph - N/A   Overcast
8:53 PM 12.9 °F -4.4 °F 3.0 °F 65% 30.25 in 10.0 mi South 18.4 mph 21.9 mph N/A   Overcast
9:35 PM 14.0 °F -2.5 °F 1.9 °F 59% 30.19 in 10.0 mi South 17.3 mph - N/A   Overcast
9:53 PM 14.0 °F -1.4 °F 1.9 °F 59% 30.25 in 10.0 mi South 15.0 mph - N/A   Overcast
10:06 PM 14.0 °F -0.2 °F 1.9 °F 59% 30.18 in 10.0 mi South 12.7 mph - N/A   Overcast
10:17 PM 14.0 °F -0.2 °F 1.9 °F 59% 30.18 in 10.0 mi South 12.7 mph 21.9 mph N/A   Overcast
10:53 PM 14.0 °F -0.8 °F 1.9 °F 59% 30.23 in 10.0 mi South 13.8 mph - N/A   Overcast
11:27 PM 12.9 °F -0.9 °F 1.0 °F 59% 30.17 in 10.0 mi South 11.5 mph - N/A   Overcast
11:53 PM 12.9 °F -0.2 °F 1.0 °F 59% 30.22 in 10.0 mi South 10.4 mph - N/A   Overcast